303  
ASUS41 KBTV 151330  
RWRBTV  
VERMONT REGIONAL WEATHER ROUNDUP  
NATIONAL WEATHER SERVICE BURLINGTON VT  
900 AM EDT SAT AUG 15 2020  
 
NOTE: "FAIR" INDICATES FEW OR NO CLOUDS BELOW 12,000 FEET WITH NO  
SIGNIFICANT WEATHER AND/OR S TO VISIBILITY
.  
 
* THESE REPORTS ARE NOT UNDER NWS QUALITY CONTROL AND/OR DO NOT  
REPORT WEATHER SUCH AS PRECIPITATION AND FOG.
 
 
VTZ001>019-151400-  
_____VERMONT_____  
 
 
CITY SKY/WX TMP DP RH WIND PRES REMARKS
 
BURLINGTON MOSUNNY 69 59 70 CALM 30.09F  
MONTPELIER SUNNY 60 57 89 CALM 30.17S  
MORRISVILLE SUNNY 65 57 75 CALM 30.13S  
ST. JOHNSBURY* N/A 65 55 70 MISG 30.11F  
LYNDONVILLE* FAIR 68 56 66 CALM 30.16R  
RUTLAND* SUNNY 69 59 70 SW6 30.11S  
SPRINGFIELD MOSUNNY 68 58 70 CALM 30.12S  
HIGHGATE* FAIR 71 59 66 CALM 30.09S  
NEWPORT* FAIR 64 59 82 CALM 30.15S  
BENNINGTON MOSUNNY 72 60 66 CALM 30.09R  
ISLAND POND* N/A 68 N/A N/A E3 N/A  
GALLUP MILLS* N/A 68 N/A N/A MISG N/A  
MT. MANSFIELD* N/A 66 N/A N/A NE6 N/A  
 
_____LAKE CHAMPLAIN_____  
 
 
CITY SKY/WX TMP DP RH WIND PRES REMARKS
 
BURTON ISLAND* N/A 68 59 73 SE2 N/A  
COLCHESTER RF* N/A 66 63 88 NW3 N/A  
DIAMOND ISL* N/A 68 64 88 N8 N/A  
 

 
 
NYZ007-026>031-035-052-083-087-151400-  
_____NORTHERN NEW YORK_____  
 
 
CITY SKY/WX TMP DP RH WIND PRES REMARKS
 
PLATTSBURGH SUNNY 67 61 81 CALM 30.09S  
SARANAC LAKE SUNNY 66 54 65 CALM 30.11S  
MASSENA SUNNY 67 60 78 E12 30.09S  
OGDENSBURG* FAIR 68 61 77 NE7 30.05S  
POTSDAM* SUNNY 64 57 77 NE5 30.07F  
WATERTOWN SUNNY 70 60 70 NE6 30.04S  
FT DRUM SUNNY 71 57 63 SE8 30.05S  
ALBANY PTSUNNY 68 60 75 N6 30.08R  
GLENS FALLS SUNNY 70 59 68 VRB5 30.08S  
 

 
NHZ002-005-011-151400-  
_____NEW HAMPSHIRE_____  
 
 
CITY SKY/WX TMP DP RH WIND PRES REMARKS
 
LEBANON MOSUNNY 67 57 70 CALM 30.12S  
KEENE CLOUDY 69 61 75 VRB5 30.11R  
MT WASHINGTON PTSUNNY 50 43 76 E14 N/A  
PLYMOUTH FAIR 69 62 78 MISG 30.12S HAZE  
WHITEFIELD SUNNY 69 57 65 E10 30.13F  
 

 
 
_____REGIONAL QUEBEC LOCATIONS_____  
 
 
CITY SKY/WX TMP DP RH WIND PRES REMARKS
 
MONTREAL MOSUNNY 70 59 68 NE12G18 30.10R  
QUEBEC CITY MOSUNNY 66 57 72 NE17 30.19R  
SHERBROOKE MOSUNNY 68 59 73 E5 30.13F  
 
_____REGIONAL ONTARIO LOCATIONS_____  
 
 
CITY SKY/WX TMP DP RH WIND PRES REMARKS
 
OTTAWA SUNNY 66 59 77 E13G20 30.09S  
 
______KEY______  
VSB - VISIBILITY IN MILES  
WCI - WIND CHILL INDEX  
HX - HEAT INDEX  

 
NNNN  
 
 
CLICK HERE TO GO TO PREVIOUS BULLETINS.

The Nexlab VT Page
The Nexlab NY Page Main Text Page